CANX-5

Last updated on Wed Sep 17 2025 00:03:49 GMT+0000 (Coordinated Universal Time)

1 40056U 14034D 25259.57626070 .00000976 00000+0 13499-3 0 9993 2 40056 98.3495 119.3634 0013167 164.6780 195.4832 14.80445156594842
UTC large
Height (km)
Speed (km/s)
/
Latitude / Longitude
Inclination (degrees)
Orbital Period (minutes)
Azimuth
Elevation
Range (km)
Doppler Factor

Next 0 passes for location: London (51.5072 / 0.1276)

Sorry there are no passes over London.